DELTA 1 DEB, 9702

Orbit data source: Space-Track

DELTA 1 DEB, 9702 is space debris in LEO originally from a launch on Tue, 06 Nov 1973 UTC launched from the Air Force Western Test Range (AFWTR). Debris objects in space refer to the collection of defunct objects orbiting the Earth. Examples of debris include non-operational satellites, rocket bodies, and fragments generated from explosions, collisions, or faulty payload assembly.

Loading next visibility...
Identifier
9702, 1973-086GA
Orbit
LEO
Country
Flag of USUS
Related business
Manufacturer
Unknown
Mission
Spacecraft
Bus & Motor
Unknown
Mass
Unknown
Launch date (UTC)
1973-11-06 (52 years ago)
Launch vehicle
Unknown
Launch site
Air Force Western Test Range (AFWTR)
Object type
Payload
Rocket body
Debris
Shape & HBR
Unknown shape, 1.1 m
Radar Cross Section
Small (<0.1 m²)

Expand to show TLE details & history
Last TLE update: 2 days ago

TLE from 2 days ago
0 DELTA 1 DEB
1 09702U 73086GA  25347.44724113 -.00005090  00000-0 -69146-1 0  9992
2 09702 103.0782 294.4689 0716830 142.4247 341.9208 11.41731591169389
Epoch: 2025-12-13T10:44Z
TLE epoch observation values (Epoch: 2025-12-13T10:44:01.633Z)
Latitude
56.19373°
Longitude
-108.7187°
Altitude
1,398.644 km
Speed
7.404 km/s
True Right ascension
08h 58m 38s
True Declination
56° 02' 52"
Sunlit
Object was in full shadow at epoch
Visualization orbit readout
Latitude
Unknown
Longitude
Unknown
Altitude
Unknown
Speed
Unknown
Apparent Right ascension
Unknown
Apparent Declination
Unknown
Sunlit
N/A
Visualization observer readout
Local Sidereal Time
17:23:09
Azimuth
Unknown
Elevation
Unknown
Doppler factor
Unknown
Orbital elements
Apogee altitude
2,547.548 km
Perigee altitude
1,353.502 km
Semi-major axis
8,328.662 km
Eccentricity
0.07168
Inclination
103.0782°
RAAN
294.4689°
Arg. of periapsis
142.4247°
True anomaly
339.1364°
Mean anomaly
341.9208°
Eccentric anomaly
340.55342°
Mean motion
2.85549 °/min
Orbital period
126.07 mins
BSTAR
-0.069146
Loading maneuver chart data...
Computing Atmospheric mass density...
Loading historical data...
Loading historical data...
Loading historical data...
Loading historical data...
Loading historical data...
Loading historical data...
Loading historical data...

Documentation

Showing up to 5 results
|